Home > Weather > Lohmar > Past weeks

Flag for Germany Past Weather in Lohmar, North Rhine-Westphalia, Germany — Yesterday and Last 2 Weeks

Now
57 °F

Passing clouds.


Feels Like: 57 °F
Forecast: 56 / 69 °F
Wind: 3 mph from Northeast

Location: Koeln / Bonn

Current Time: Jun 1, 2016 at 1:53:59 AM

Latest Report: Jun 1, 2016 at 1:20 AM


Visibility: N/A

Pressure: 29.95 "Hg

Humidity: 100%

Dew Point: 57 °F

Location of LohmarLocation

Past Weather in Lohmar — Graph

°F

Lohmar Temperature Yesterday

Maximum temperature yesterday: 70 °F (at 2:20 PM)
Minimum temperature yesterday: 59 °F (at 4:20 AM)
Average temperature yesterday: 63 °F

High & Low Weather Summary for the Past Weeks

 TemperatureHumidityPressure
High77 °F (May 28, 4:20 PM)100% (May 23, 3:50 PM)30.12 "Hg (May 23, 3:50 PM)
Low45 °F (May 17, 5:50 AM)34% (May 17, 3:20 PM)29.56 "Hg (May 30, 4:20 PM)
Average60 °F75%29.89 "Hg
* Reported May 17 12:20 AM — Jun 1 12:20 AM, Lohmar, Weather by CustomWeather, © 2016

Note: Actual official high and low records may vary slightly from our data, if they occured in-between our weather recording intervals... More about our weather records

Advertising

Lohmar Weather History for the Previous 24 Hours

Scroll right to see more
 ConditionsComfort  
Time TempWeatherWind HumidityBarometerVisibility
12:20 AM
Wed, Jun 1
59 °FPassing clouds.2 mph94%29.95 "HgN/A
11:50 PM
Tue, May 31
61 °FPassing clouds.1 mph88%29.95 "HgN/A
11:20 PM61 °FPassing clouds.1 mph94%29.92 "HgN/A
10:50 PM63 °FPassing clouds.1 mph83%29.92 "HgN/A
10:20 PM63 °FPartly sunny.3 mph88%29.92 "HgN/A
9:50 PM63 °FPartly sunny.2 mph83%29.92 "HgN/A
9:20 PM64 °FPartly sunny.2 mph78%29.89 "HgN/A
8:50 PM64 °FPartly sunny.2 mph78%29.89 "HgN/A
8:20 PM66 °FPartly sunny.3 mph73%29.89 "HgN/A
7:50 PM66 °FPartly sunny.3 mph68%29.89 "HgN/A
7:20 PM66 °FPartly sunny.3 mph73%29.89 "HgN/A
6:50 PM66 °FPartly sunny.3 mph68%29.86 "HgN/A
6:20 PM66 °FPartly sunny.3 mph68%29.86 "HgN/A
5:50 PM66 °FPartly sunny.6 mph68%29.86 "HgN/A
5:20 PM66 °FPartly sunny.5 mph68%29.86 "HgN/A
4:50 PM64 °FPartly sunny.6 mph73%29.86 "HgN/A
4:20 PM64 °FPartly sunny.7 mph73%29.86 "HgN/A
3:50 PM64 °FPartly sunny.6 mph73%29.86 "HgN/A
3:20 PM64 °FPartly sunny.5 mph73%29.83 "HgN/A
2:50 PM64 °FPartly sunny.9 mph68%29.83 "HgN/A
2:20 PM70 °FBroken clouds.7 mph60%29.83 "HgN/A
1:20 PM64 °FBroken clouds.7 mph68%29.83 "HgN/A
12:50 PM66 °FBroken clouds.13 mph64%29.83 "HgN/A
12:20 PM66 °FScattered showers. Scattered clouds.10 mph64%29.80 "HgN/A
11:50 AM64 °FPartly sunny.13 mph68%29.80 "HgN/A
11:20 AM64 °FSprinkles. Broken clouds.12 mph68%29.80 "HgN/A
10:50 AM64 °FBroken clouds.13 mph68%29.77 "HgN/A
10:20 AM63 °FBroken clouds.13 mph73%29.77 "HgN/A
9:50 AM63 °FBroken clouds.13 mph73%29.77 "HgN/A
9:20 AM63 °FPartly sunny.12 mph73%29.77 "HgN/A
8:50 AM61 °FPartly sunny.12 mph77%29.77 "HgN/A
8:20 AM61 °FPartly sunny.12 mph77%29.74 "HgN/A
7:50 AM61 °FPartly sunny.10 mph77%29.74 "HgN/A
7:20 AM61 °FPartly sunny.12 mph77%29.74 "HgN/A
6:50 AM61 °FPartly sunny.12 mph72%29.71 "HgN/A
6:20 AM59 °FPartly cloudy.10 mph77%29.71 "HgN/A
5:50 AM59 °FPassing clouds.10 mph77%29.71 "HgN/A
5:20 AM59 °FPassing clouds.14 mph77%29.68 "HgN/A
4:50 AM59 °FPassing clouds.12 mph77%29.68 "HgN/A
4:20 AM59 °FPartly cloudy.14 mph82%29.68 "HgN/A
3:50 AM61 °FPartly cloudy.13 mph77%29.68 "HgN/A
3:20 AM61 °FPartly cloudy.12 mph77%29.68 "HgN/A
2:50 AM61 °FPassing clouds.9 mph77%29.68 "HgN/A
2:20 AM61 °FPartly cloudy.10 mph77%29.68 "HgN/A
1:50 AM61 °FPartly cloudy.9 mph83%29.65 "HgN/A
1:20 AM61 °FPartly cloudy.10 mph83%29.65 "HgN/A
Weather by CustomWeather, © 2016

See weather overviewHow to use our weather pages